User: anonymous   Login
Location: Unspecified
(0.0000°N, 0.0000°E)
Time: 05:15:40
(UTC+00:00)
Language:

Milstar DFS 2 - Orbit

View from above orbital plane
View from above orbital plane
View from above satellite
View from above satellite

Ground track
Ground track

The orbit data is extracted from the following two-line orbital elements,

1 23712U 95060A   18143.65317847 0.00000000  00000-0  00000-0 0    06
2 23712  12.7488  26.4197 0001999 286.6461  73.3041  1.00270000    05
Epoch (UTC): 23 May 2018 15:40:34
Eccentricity: 0.0001999
inclination: 12.7488°
perigee height: 35778 km
apogee height: 35795 km
right ascension of ascending node: 26.4197°
argument of perigee: 286.6461°
revolutions per day: 1.00270000
mean anomaly at epoch: 73.3041°
orbit number at epoch: 0

The dashed part of the orbit path shows where the satellite is in the earth's shadow,  

DLR